EW8444 Weather Reports


Display with metric or nautical units.
time (UTC)temp
F
wind
direction
speed
MPH
gust
MPH
rain 1hr
in
rain 24hr
in
rain mn
in
humidity
%
barometer
mb
20190321174933 54 355 6.0 7.0 0.00 0.00 0.00 46 1009.7
20190321174430 54 37 5.0 7.0 0.00 0.00 0.00 45 1009.7
20190321173930 54 45 3.0 7.0 0.00 0.00 0.00 45 1009.7
20190321173430 54 5 3.0 10.0 0.00 0.00 0.00 44 1009.8
20190321172930 54 289 4.0 13.0 0.00 0.00 0.00 43 1009.9
20190321172433 54 316 5.0 12.0 0.00 0.00 0.00 43 1009.9
20190321171930 54 5 7.0 9.0 0.00 0.00 0.00 43 1009.9
20190321171430 54 13 4.0 11.0 0.00 0.00 0.00 43 1009.9
20190321170930 54 303 5.0 10.0 0.00 0.00 0.00 44 1009.9
20190321170433 54 309 9.0 8.0 0.00 0.00 0.00 43 1009.9
20190321165936 54 238 1.0 9.0 0.00 0.00 0.00 43 1009.9
20190321165430 54 351 1.0 3.0 0.00 0.00 0.00 45 1009.9
20190321164930 55 355 3.0 8.0 0.00 0.00 0.00 44 1010.0
20190321164430 55 349 7.0 7.0 0.00 0.00 0.00 45 1010.0
20190321163930 55 5 1.0 4.0 0.00 0.00 0.00 44 1010.0
20190321163430 55 246 1.0 5.0 0.00 0.00 0.00 45 1010.1
20190321162930 54 53 2.0 5.0 0.00 0.00 0.00 44 1010.2
20190321162430 55 57 1.0 7.0 0.00 0.00 0.00 43 1010.3
20190321161930 55 263 3.0 7.0 0.00 0.00 0.00 43 1010.3
20190321161430 55 98 1.0 6.0 0.00 0.00 0.00 44 1010.3
20190321160930 55 342 0.0 5.0 0.00 0.00 0.00 44 1010.4
20190321160430 56 350 1.0 8.0 0.00 0.00 0.00 42 1010.5
20190321155930 56 146 2.0 6.0 0.00 0.00 0.00 44 1010.5
20190321155433 54 19 2.0 4.0 0.00 0.00 0.00 45 1010.6
20190321154933 54 252 1.0 11.0 0.00 0.00 0.00 45 1010.7
20190321154436 54 331 5.0 7.0 0.00 0.00 0.00 46 1010.7
20190321153933 54 355 2.0 4.0 0.00 0.00 0.00 48 1010.7
20190321153433 53 248 1.0 3.0 0.00 0.00 0.00 49 1010.8
20190321152929 53 67 2.0 5.0 0.00 0.00 0.00 49 1010.9
20190321152430 52 62 2.0 3.0 0.00 0.00 0.00 50 1011.0
20190321151933 52 342 1.0 9.0 0.00 0.00 0.00 50 1011.2
20190321151430 51 5 4.0 7.0 0.00 0.00 0.00 49 1011.1
20190321150930 51 32 3.0 8.0 0.00 0.00 0.00 49 1011.3
20190321150430 51 80 5.0 9.0 0.00 0.00 0.00 49 1011.3
20190321145930 51 5 4.0 9.0 0.00 0.00 0.00 50 1011.4
20190321145430 51 40 3.0 7.0 0.00 0.00 0.00 50 1011.4
20190321144930 51 18 4.0 6.0 0.00 0.00 0.00 50 1011.4
20190321144430 50 349 2.0 5.0 0.00 0.00 0.00 52 1011.5
20190321143936 49 94 3.0 5.0 0.00 0.00 0.00 53 1011.5
20190321143430 49 72 4.0 5.0 0.00 0.00 0.00 54 1011.6
20190321142933 48 22 0.0 2.0 0.00 0.00 0.00 54 1011.6
20190321142430 48 59 0.0 5.0 0.00 0.00 0.00 54 1011.7
20190321141933 47 51 2.0 5.0 0.00 0.00 0.00 55 1011.8
20190321141430 47 163 1.0 2.0 0.00 0.00 0.00 54 1011.8
20190321140930 46 112 1.0 2.0 0.00 0.00 0.00 56 1011.9
20190321140430 46 49 0.0 2.0 0.00 0.00 0.00 58 1011.9
20190321135930 45 13 0.0 2.0 0.00 0.00 0.00 58 1011.9
20190321135431 45 5 2.0 3.0 0.00 0.00 0.00 58 1012.0
20190321134930 44 15 3.0 3.0 0.00 0.00 0.00 60 1012.1
20190321134433 43 331 0.0 1.0 0.00 0.00 0.00 63 1012.2
20190321133930 42 332 0.0 1.0 0.00 0.00 0.00 63 1012.3
20190321133430 42 332 1.0 2.0 0.00 0.00 0.00 62 1012.4
20190321132930 41 295 1.0 1.0 0.00 0.00 0.00 62 1012.5
20190321132433 41 296 1.0 3.0 0.00 0.00 0.00 63 1012.6
20190321131930 41 296 1.0 3.0 0.00 0.00 0.00 66 1012.7
20190321131430 40 193 0.0 0.0 0.00 0.00 0.00 69 1012.7
20190321130933 40 193 0.0 0.0 0.00 0.00 0.00 72 1012.9
20190321130430 40 193 0.0 0.0 0.00 0.00 0.00 73 1012.9
20190321125932 39 193 0.0 0.0 0.00 0.00 0.00 73 1012.9
20190321125430 39 193 0.0 0.0 0.00 0.00 0.00 73 1012.9
20190321124930 39 193 0.0 1.0 0.00 0.00 0.00 74 1012.9
20190321124430 39 193 0.0 1.0 0.00 0.00 0.00 75 1013.0
20190321123930 39 193 0.0 0.0 0.00 0.00 0.00 74 1012.9
20190321123430 39 193 0.0 1.0 0.00 0.00 0.00 75 1013.0
20190321122930 39 193 0.0 2.0 0.00 0.00 0.00 75 1013.0
20190321122433 39 193 1.0 2.0 0.00 0.00 0.00 75 1013.1
20190321121932 38 193 0.0 1.0 0.00 0.00 0.00 76 1013.0
20190321121430 38 193 0.0 1.0 0.00 0.00 0.00 76 1013.1
20190321120930 38 193 1.0 1.0 0.00 0.00 0.00 76 1013.1
20190321120430 38 193 0.0 0.0 0.00 0.00 0.00 75 1013.1
20190321115933 38 193 0.0 0.0 0.00 0.00 0.00 74 1013.1
20190321115430 38 193 0.0 0.0 0.00 0.00 0.00 73 1013.1
20190321114933 38 193 0.0 1.0 0.00 0.00 0.00 75 1013.2
20190321114430 38 193 0.0 2.0 0.00 0.00 0.00 74 1013.2
20190321113933 38 193 0.0 1.0 0.00 0.00 0.00 75 1013.2
20190321113430 38 193 0.0 1.0 0.00 0.00 0.00 75 1013.3
20190321112930 38 193 0.0 1.0 0.00 0.00 0.00 75 1013.2
20190321112430 37 193 0.0 0.0 0.00 0.00 0.00 74 1013.2
20190321111930 37 193 0.0 0.0 0.00 0.00 0.00 73 1013.3
20190321111429 37 193 0.0 0.0 0.00 0.00 0.00 73 1013.4
20190321110930 37 193 0.0 0.0 0.00 0.00 0.00 73 1013.5
20190321110430 37 193 0.0 0.0 0.00 0.00 0.00 73 1013.5
20190321105933 38 193 0.0 1.0 0.00 0.00 0.00 73 1013.5
20190321105430 38 193 0.0 2.0 0.00 0.00 0.00 73 1013.6
20190321104930 38 193 0.0 2.0 0.00 0.00 0.00 72 1013.4
20190321104430 38 193 0.0 1.0 0.00 0.00 0.00 73 1013.7
20190321103930 38 193 0.0 2.0 0.00 0.00 0.00 72 1013.7
20190321103436 38 193 1.0 2.0 0.00 0.00 0.00 74 1013.7
20190321102933 38 193 1.0 1.0 0.00 0.00 0.00 74 1013.7
20190321102433 38 193 0.0 0.0 0.00 0.00 0.00 73 1013.8
20190321101930 38 193 0.0 0.0 0.00 0.00 0.00 74 1013.8
20190321101430 38 193 0.0 0.0 0.00 0.00 0.00 74 1013.8
20190321100929 38 193 0.0 0.0 0.00 0.00 0.00 74 1013.8
20190321100430 38 193 0.0 0.0 0.00 0.00 0.00 73 1013.9
20190321095930 38 193 0.0 0.0 0.00 0.00 0.00 73 1014.0
20190321095430 38 193 0.0 0.0 0.00 0.00 0.00 73 1014.1
20190321094930 38 193 0.0 1.0 0.00 0.00 0.00 73 1014.3
20190321094430 38 193 0.0 0.0 0.00 0.00 0.00 73 1014.3
20190321093930 38 193 0.0 1.0 0.00 0.00 0.00 72 1014.3
20190321093436 38 193 0.0 1.0 0.00 0.00 0.00 72 1014.3
20190321092930 38 193 0.0 0.0 0.00 0.00 0.00 72 1014.4
20190321092433 38 193 0.0 1.0 0.00 0.00 0.00 71 1014.4
20190321091930 38 193 0.0 1.0 0.00 0.00 0.00 71 1014.5
20190321091430 38 193 0.0 0.0 0.00 0.00 0.00 69 1014.7
20190321090929 38 193 0.0 0.0 0.00 0.00 0.00 68 1014.7
20190321090430 38 193 0.0 0.0 0.00 0.00 0.00 69 1014.8
20190321085930 38 193 0.0 0.0 0.00 0.00 0.00 68 1015.0
20190321085433 38 193 0.0 1.0 0.00 0.00 0.00 69 1015.1
20190321084933 38 193 0.0 0.0 0.00 0.00 0.00 69 1015.1
20190321084436 38 193 0.0 0.0 0.00 0.00 0.00 69 1015.2
20190321083933 38 193 0.0 0.0 0.00 0.00 0.00 68 1015.3
20190321083430 38 193 0.0 0.0 0.00 0.00 0.00 68 1015.4
20190321082929 38 193 0.0 0.0 0.00 0.00 0.00 66 1015.6
20190321082429 38 193 0.0 0.0 0.00 0.00 0.00 67 1015.7
20190321081930 38 193 0.0 0.0 0.00 0.00 0.00 67 1015.9
20190321081430 38 193 0.0 1.0 0.00 0.00 0.00 67 1015.9
20190321080930 38 193 0.0 1.0 0.00 0.00 0.00 67 1016.1
20190321080436 38 193 0.0 0.0 0.00 0.00 0.00 64 1016.2
20190321075930 39 193 0.0 0.0 0.00 0.00 0.00 64 1016.4
20190321075430 39 193 0.0 1.0 0.00 0.00 0.00 64 1016.4
20190321074930 39 193 0.0 1.0 0.00 0.00 0.00 62 1016.6
20190321074430 39 193 0.0 2.0 0.00 0.00 0.00 60 1016.7
20190321073933 39 193 1.0 2.0 0.00 0.00 0.00 64 1016.8
20190321073430 39 193 0.0 1.0 0.00 0.00 0.00 64 1017.0
20190321072929 39 193 1.0 1.0 0.00 0.00 0.00 60 1017.0
20190321072433 39 193 0.0 0.0 0.00 0.00 0.00 62 1017.0
20190321071930 39 193 0.0 1.0 0.00 0.00 0.00 62 1017.1
20190321071430 40 193 0.0 0.0 0.00 0.00 0.00 59 1017.2
20190321070933 40 193 0.0 0.0 0.00 0.00 0.00 57 1017.4
20190321070430 40 193 0.0 0.0 0.00 0.00 0.00 58 1017.4
20190321065929 40 193 0.0 0.0 0.00 0.00 0.00 56 1017.5
20190321065433 40 193 0.0 1.0 0.00 0.00 0.00 55 1017.6
20190321064930 40 193 0.0 0.0 0.00 0.00 0.00 55 1017.8
20190321064430 40 193 0.0 1.0 0.00 0.00 0.00 59 1017.9
20190321063930 40 193 0.0 0.0 0.00 0.00 0.00 57 1017.9
20190321063430 40 193 0.0 0.0 0.00 0.00 0.00 57 1017.9
20190321062935 40 193 0.0 0.0 0.00 0.00 0.00 62 1018.0
20190321062433 40 193 0.0 0.0 0.00 0.00 0.00 59 1018.0
20190321061933 40 193 0.0 0.0 0.00 0.00 0.00 59 1018.1
20190321061433 40 193 0.0 0.0 0.00 0.00 0.00 57 1018.1
20190321060930 40 193 0.0 0.0 0.00 0.00 0.00 58 1018.3
20190321060432 40 193 0.0 0.0 0.00 0.00 0.00 56 1018.3
20190321055930 40 193 0.0 0.0 0.00 0.00 0.00 58 1018.4
20190321055430 41 193 0.0 0.0 0.00 0.00 0.00 58 1018.5
20190321054930 41 193 0.0 0.0 0.00 0.00 0.00 57 1018.5
20190321054434 41 193 0.0 0.0 0.00 0.00 0.00 56 1018.6
20190321053930 41 193 0.0 0.0 0.00 0.00 0.00 56 1018.7
20190321053430 41 193 0.0 1.0 0.00 0.00 0.00 55 1018.8
20190321052930 41 193 0.0 1.0 0.00 0.00 0.00 52 1018.8
20190321052433 41 193 0.0 0.0 0.00 0.00 0.00 48 1019.0
20190321051930 41 193 0.0 0.0 0.00 0.00 0.00 47 1019.1
20190321051429 41 193 0.0 0.0 0.00 0.00 0.00 47 1019.1
20190321050929 41 193 0.0 0.0 0.00 0.00 0.00 48 1019.2
20190321050430 41 193 0.0 0.0 0.00 0.00 0.00 50 1019.3
20190321045930 42 193 0.0 0.0 0.00 0.00 0.00 50 1019.4
20190321045430 42 193 0.0 0.0 0.00 0.00 0.00 46 1019.4
20190321044929 42 193 0.0 0.0 0.00 0.00 0.00 46 1019.6
20190321044430 42 193 0.0 0.0 0.00 0.00 0.00 45 1019.6
20190321043930 42 193 0.0 0.0 0.00 0.00 0.00 44 1019.7
20190321043432 42 193 0.0 0.0 0.00 0.00 0.00 44 1019.6
20190321042929 42 193 0.0 0.0 0.00 0.00 0.00 43 1019.7
20190321042430 42 193 0.0 0.0 0.00 0.00 0.00 42 1019.8
20190321041929 43 193 0.0 0.0 0.00 0.00 0.00 43 1019.9
20190321041430 43 193 0.0 0.0 0.00 0.00 0.00 40 1019.9
20190321040930 43 193 0.0 0.0 0.00 0.00 0.00 41 1020.0
20190321040429 43 193 0.0 0.0 0.00 0.00 0.00 39 1020.1
20190321035930 43 193 0.0 0.0 0.00 0.00 0.00 38 1020.2
20190321035433 44 192 0.0 0.0 0.00 0.00 0.00 37 1020.2
20190321034929 44 192 0.0 0.0 0.00 0.00 0.00 37 1020.2
20190321034430 44 193 0.0 0.0 0.00 0.00 0.00 37 1020.3
20190321033930 45 193 0.0 0.0 0.00 0.00 0.00 36 1020.4
20190321033429 45 193 0.0 0.0 0.00 0.00 0.00 35 1020.5
20190321032930 45 193 0.0 0.0 0.00 0.00 0.00 35 1020.5
20190321032430 45 193 0.0 0.0 0.00 0.00 0.00 35 1020.5
20190321031929 46 193 0.0 0.0 0.00 0.00 0.00 34 1020.5
20190321031432 46 193 0.0 0.0 0.00 0.00 0.00 34 1020.5
20190321030930 47 193 0.0 1.0 0.00 0.00 0.00 35 1020.5
20190321030430 47 193 0.0 2.0 0.00 0.00 0.00 32 1020.6
20190321025929 47 192 0.0 0.0 0.00 0.00 0.00 33 1020.6
20190321025430 48 192 0.0 2.0 0.00 0.00 0.00 32 1020.5
20190321024930 48 192 1.0 3.0 0.00 0.00 0.00 31 1020.6
20190321024432 48 193 1.0 3.0 0.00 0.00 0.00 31 1020.6
20190321023932 48 192 1.0 4.0 0.00 0.00 0.00 31 1020.6
20190321023430 48 193 1.0 3.0 0.00 0.00 0.00 32 1020.6
20190321022933 49 190 1.0 2.0 0.00 0.00 0.00 31 1020.6
20190321022429 49 190 1.0 4.0 0.00 0.00 0.00 31 1020.5
20190321021930 49 198 1.0 4.0 0.00 0.00 0.00 31 1020.5
20190321021431 49 219 1.0 3.0 0.00 0.00 0.00 31 1020.5
20190321020936 49 225 2.0 5.0 0.00 0.00 0.00 31 1020.5
20190321020430 49 198 6.0 6.0 0.00 0.00 0.00 30 1020.5
20190321015933 49 193 1.0 2.0 0.00 0.00 0.00 30 1020.5
20190321015429 49 193 1.0 4.0 0.00 0.00 0.00 29 1020.4
20190321014932 50 193 0.0 1.0 0.00 0.00 0.00 30 1020.4
20190321014432 50 193 0.0 1.0 0.00 0.00 0.00 30 1020.3
20190321013932 51 193 0.0 2.0 0.00 0.00 0.00 28 1020.2
20190321013436 51 193 1.0 3.0 0.00 0.00 0.00 28 1020.2
20190321012930 51 199 1.0 2.0 0.00 0.00 0.00 28 1020.2
20190321012430 52 199 0.0 2.0 0.00 0.00 0.00 27 1020.1
20190321011930 52 190 0.0 6.0 0.00 0.00 0.00 26 1019.9
20190321011432 52 194 1.0 4.0 0.00 0.00 0.00 26 1019.9
20190321010932 52 186 1.0 7.0 0.00 0.00 0.00 26 1019.8
20190321010430 52 193 2.0 4.0 0.00 0.00 0.00 26 1019.7
20190321005931 52 188 3.0 4.0 0.00 0.00 0.00 26 1019.7
20190321005430 53 211 0.0 3.0 0.00 0.00 0.00 25 1019.7
20190321004930 53 186 2.0 5.0 0.00 0.00 0.00 25 1019.7
20190321004429 53 211 3.0 6.0 0.00 0.00 0.00 25 1019.7
20190321003929 53 203 1.0 4.0 0.00 0.00 0.00 25 1019.6
20190321003433 53 205 2.0 4.0 0.00 0.00 0.00 26 1019.5
20190321002936 53 211 1.0 4.0 0.00 0.00 0.00 26 1019.4
20190321002429 53 196 1.0 2.0 0.00 0.00 0.00 26 1019.3
20190321001930 54 198 1.0 3.0 0.00 0.00 0.00 25 1019.3
20190321001432 54 196 1.0 2.0 0.00 0.00 0.00 25 1019.3
20190321000930 54 196 0.0 2.0 0.00 0.00 0.00 25 1019.2
20190321000430 55 196 2.0 6.0 0.00 0.00 0.00 24 1019.1
20190320235930 55 287 1.0 2.0 0.00 0.00 0.00 24 1019.1
20190320235430 56 197 0.0 2.0 0.00 0.00 0.00 22 1019.1
20190320234929 56 197 1.0 3.0 0.00 0.00 0.00 22 1019.0
20190320234432 57 197 3.0 5.0 0.00 0.00 0.00 21 1018.9
20190320233929 57 206 1.0 5.0 0.00 0.00 0.00 20 1018.8
20190320233430 57 198 1.0 3.0 0.00 0.00 0.00 20 1018.8
20190320232930 58 196 1.0 3.0 0.00 0.00 0.00 20 1018.7
20190320232430 58 196 1.0 5.0 0.00 0.00 0.00 19 1018.6
20190320231930 59 202 1.0 6.0 0.00 0.00 0.00 19 1018.6
20190320231430 59 235 3.0 7.0 0.00 0.00 0.00 18 1018.6
20190320230930 60 182 1.0 4.0 0.00 0.00 0.00 18 1018.6
20190320230429 60 198 3.0 3.0 0.00 0.00 0.00 18 1018.6
20190320225930 60 182 2.0 7.0 0.00 0.00 0.00 18 1018.6
20190320225429 61 210 3.0 3.0 0.00 0.00 0.00 18 1018.5
20190320224930 61 180 3.0 3.0 0.00 0.00 0.00 18 1018.5
20190320224432 61 195 3.0 6.0 0.00 0.00 0.00 18 1018.5
20190320223929 61 207 2.0 8.0 0.00 0.00 0.00 18 1018.5
20190320223429 61 239 3.0 7.0 0.00 0.00 0.00 19 1018.4
20190320222930 62 188 3.0 5.0 0.00 0.00 0.00 21 1018.4
20190320222429 62 163 1.0 3.0 0.00 0.00 0.00 18 1018.5
20190320221929 62 234 1.0 4.0 0.00 0.00 0.00 18 1018.5
20190320221430 62 178 3.0 4.0 0.00 0.00 0.00 21 1018.5
20190320220930 61 213 0.0 2.0 0.00 0.00 0.00 18 1018.5
20190320220429 61 238 1.0 5.0 0.00 0.00 0.00 18 1018.6
20190320215930 62 136 4.0 5.0 0.00 0.00 0.00 17 1018.7
20190320215429 62 248 4.0 4.0 0.00 0.00 0.00 18 1018.6
20190320214929 61 188 1.0 5.0 0.00 0.00 0.00 20 1018.7
20190320214429 61 191 2.0 6.0 0.00 0.00 0.00 18 1018.6
20190320213929 61 207 2.0 8.0 0.00 0.00 0.00 19 1018.6
20190320213430 62 241 5.0 7.0 0.00 0.00 0.00 19 1018.6
20190320212930 62 232 3.0 6.0 0.00 0.00 0.00 18 1018.7
20190320212433 62 242 1.0 4.0 0.00 0.00 0.00 18 1018.7
20190320211930 62 237 3.0 4.0 0.00 0.00 0.00 18 1018.7
20190320211430 62 223 3.0 5.0 0.00 0.00 0.00 16 1018.7
20190320210930 62 234 2.0 6.0 0.00 0.00 0.00 18 1018.8
20190320210433 62 202 1.0 4.0 0.00 0.00 0.00 15 1018.8
20190320205930 62 236 2.0 7.0 0.00 0.00 0.00 15 1018.8
20190320205433 62 167 1.0 4.0 0.00 0.00 0.00 14 1018.8
20190320204929 62 254 1.0 4.0 0.00 0.00 0.00 15 1018.8
20190320204429 62 196 2.0 5.0 0.00 0.00 0.00 16 1019.0
20190320203930 62 175 2.0 7.0 0.00 0.00 0.00 17 1019.0
20190320203430 62 247 2.0 3.0 0.00 0.00 0.00 17 1019.1
20190320202930 62 175 1.0 6.0 0.00 0.00 0.00 16 1019.0
20190320202435 62 250 2.0 5.0 0.00 0.00 0.00 16 1019.0
20190320201933 62 192 2.0 5.0 0.00 0.00 0.00 18 1019.0
20190320201433 61 47 2.0 5.0 0.00 0.00 0.00 17 1019.0
20190320200932 61 249 1.0 4.0 0.00 0.00 0.00 16 1019.1
20190320200429 61 214 2.0 8.0 0.00 0.00 0.00 17 1019.1
20190320195930 61 168 2.0 7.0 0.00 0.00 0.00 19 1019.2
20190320195429 61 274 1.0 5.0 0.00 0.00 0.00 18 1019.3
20190320194929 61 287 1.0 5.0 0.00 0.00 0.00 18 1019.4
20190320194429 61 200 2.0 5.0 0.00 0.00 0.00 19 1019.5
20190320193929 60 199 1.0 5.0 0.00 0.00 0.00 18 1019.5
20190320193429 59 179 2.0 5.0 0.00 0.00 0.00 19 1019.6
20190320192929 59 35 1.0 7.0 0.00 0.00 0.00 19 1019.7
20190320192429 60 240 6.0 7.0 0.00 0.00 0.00 20 1019.8
20190320191930 60 188 1.0 7.0 0.00 0.00 0.00 20 1019.9
20190320191429 59 198 3.0 5.0 0.00 0.00 0.00 20 1019.9
20190320190929 58 72 0.0 5.0 0.00 0.00 0.00 22 1019.9
20190320190430 58 178 7.0 8.0 0.00 0.00 0.00 21 1020.0
20190320185929 58 238 6.0 6.0 0.00 0.00 0.00 22 1019.9
20190320185433 58 292 4.0 4.0 0.00 0.00 0.00 23 1020.1
20190320184930 57 289 3.0 5.0 0.00 0.00 0.00 23 1020.2
20190320184431 58 288 3.0 7.0 0.00 0.00 0.00 22 1020.3
20190320183930 57 139 3.0 4.0 0.00 0.00 0.00 24 1020.3
20190320183429 57 52 2.0 4.0 0.00 0.00 0.00 21 1020.4
20190320182933 57 281 2.0 8.0 0.00 0.00 0.00 21 1020.5
20190320182432 57 176 1.0 8.0 0.00 0.00 0.00 23 1020.6
20190320181930 58 258 3.0 7.0 0.00 0.00 0.00 21 1020.7
20190320181429 58 228 1.0 8.0 0.00 0.00 0.00 21 1020.9
20190320180930 58 182 6.0 6.0 0.00 0.00 0.00 23 1020.9
20190320180436 57 44 2.0 7.0 0.00 0.00 0.00 22 1020.9
20190320175930 57 307 1.0 7.0 0.00 0.00 0.00 23 1021.0
20190320175433 57 111 4.0 5.0 0.00 0.00 0.00 25 1020.9